Back to catalog

STARLINK-34099

AliveCommunicationsVLEO
NORAD 63959·PAYLOAD·🇺🇸 United States

Launched May 13, 2025 from Cape Canaveral Space Force Station

Loading…

Next Passes (next 24 hours)

TLE

FreshSource: CelesTrak SupGP

Epoch: Sep 14, 2026, 20:46 UTC

1 63959C 25099H   26257.86576389  .00009935  00000+0  35982-3 0  2573
2 63959  43.0026 188.1659 0001459 260.4216 140.3758 15.27576684    17

Track STARLINK-34099 in real time with AllMySat

Download on the App Store